Flag for United Kingdom Weather past 2 weeks in Edinburgh, Scotland, United Kingdom

Now
57 °F

Clear.


Feels Like: 54 °F
Forecast: 51 / 64 °F
Wind: 13 mph from Southwest

Location: Edinburgh Airport

Current Time: Jul 5, 2015 at 12:11:27 AM

Latest Report: Jul 4, 2015 at 11:20 PM


Visibility: 10 mi

Pressure: 30.01 "Hg

Humidity: 82%

Dew point: 52 °F

Location of EdinburghLocation

Historic Weather in Edinburgh — Graph

°F

Edinburgh temperature yesterday

Maximum temperature yesterday: 70 °F (at 3:50 PM)
Minimum temperature yesterday: 54 °F (at 1:20 AM)
Average temperature yesterday: 59 °F

Past Weeks' High & Low Weather Summary

 TemperatureHumidityPressure
High77 °F (Jun 30, 4:50 PM)100% (Jun 22, 6:20 AM)30.27 "Hg (Jun 22, 6:20 AM)
Low37 °F (Jun 24, 4:20 AM)56% (Jun 27, 12:50 PM)29.77 "Hg (Jun 22, 1:20 AM)
Average58 °F82%29.98 "Hg
* Reported Jun 19 11:20 PM — Jul 4 11:20 PM, Edinburgh, Weather by CustomWeather, © 2015

Note: Actual official high and low records may vary slightly from our data, if they occured in-between our weather recording intervals... More about our weather records

Advertising

Edinburgh weather history for previous 24 hours

 ConditionsComfort  
Time TempWeatherWind HumidityBarometerVisibility
11:20 PM
Sat, Jul 4
57 °FClear.13 mph82%30.01 "Hg10 mi
10:50 PM57 °FSunny.8 mph82%30.01 "Hg10 mi
10:20 PM57 °FSunny.8 mph82%30.01 "Hg10 mi
9:50 PM61 °FSunny.13 mph72%29.98 "Hg10 mi
9:20 PM63 °FPassing clouds.16 mph68%29.98 "HgN/A
8:50 PM64 °FSunny.15 mph73%29.98 "Hg10 mi
8:20 PM64 °FPassing clouds.14 mph73%29.98 "HgN/A
7:50 PM66 °FScattered clouds.12 mph68%29.98 "HgN/A
7:20 PM66 °FSunny.13 mph73%29.95 "Hg10 mi
6:50 PM66 °FSunny.17 mph73%29.95 "Hg10 mi
6:20 PM66 °FPassing clouds.18 mph73%29.95 "HgN/A
5:50 PM68 °FPassing clouds.18 mph69%29.95 "HgN/A
5:20 PM70 °FPassing clouds.17 mph64%29.95 "HgN/A
4:50 PM70 °FPassing clouds.20 mph64%29.92 "HgN/A
4:20 PM70 °FScattered clouds.17 mph64%29.95 "HgN/A
3:50 PM70 °FBroken clouds.17 mph69%29.95 "HgN/A
3:20 PM63 °FPartly sunny.8 mph88%29.95 "HgN/A
2:50 PM61 °FBroken clouds.10 mph88%29.92 "HgN/A
2:20 PM61 °FBroken clouds.10 mph88%29.92 "HgN/A
1:50 PM61 °FScattered clouds.9 mph88%29.95 "HgN/A
1:20 PM59 °FPartly sunny.9 mph94%29.92 "HgN/A
12:50 PM57 °FCloudy.10 mph94%29.95 "Hg6 mi
12:20 PM57 °FLow clouds.13 mph100%29.95 "Hg5 mi
11:50 AM55 °FPartly sunny.14 mph100%29.95 "Hg4 mi
11:20 AM55 °FPartly sunny.13 mph100%29.95 "Hg4 mi
10:50 AM55 °FPartly sunny.14 mph94%29.95 "Hg4 mi
10:20 AM55 °FLight rain. Partly sunny.9 mph94%29.95 "Hg5 mi
9:50 AM54 °FLight rain. Mostly cloudy.14 mph100%29.95 "Hg5 mi
9:20 AM54 °FRain. Low clouds.16 mph100%29.95 "Hg5 mi
8:50 AM54 °FRain. Low clouds.17 mph100%29.98 "Hg4 mi
8:20 AM54 °FRain. Mostly cloudy.14 mph100%30.01 "Hg3 mi
7:50 AM54 °FRain. Mostly cloudy.16 mph100%30.01 "Hg2 mi
7:20 AM54 °FLight rain. Mostly cloudy.7 mph100%30.04 "Hg5 mi
6:50 AM54 °FRain. Partly sunny.22 mph100%30.01 "Hg4 mi
6:20 AM54 °FLight rain. Partly sunny.17 mph100%30.01 "HgN/A
5:50 AM54 °FLight rain. Partly sunny.16 mph100%30.07 "HgN/A
5:20 AM54 °FLight rain. Low clouds.16 mph100%30.07 "Hg4 mi
4:50 AM54 °FPassing clouds.17 mph100%30.07 "HgN/A
4:20 AM54 °FLight rain. Passing clouds.17 mph100%30.07 "HgN/A
3:50 AM54 °FLight rain. Passing clouds.15 mph100%30.09 "HgN/A
3:20 AM54 °FLight rain. Passing clouds.14 mph100%30.12 "Hg5 mi
2:50 AM54 °FPassing clouds.10 mph100%30.15 "HgN/A
2:20 AM54 °FPassing clouds.10 mph100%30.18 "Hg6 mi
1:50 AM54 °FPassing clouds.13 mph100%30.18 "Hg5 mi
1:20 AM54 °FFog.14 mph100%30.18 "HgN/A
12:50 AM55 °FPassing clouds.14 mph94%30.18 "HgN/A
12:20 AM55 °FClear.8 mph88%30.18 "Hg10 mi
Weather by CustomWeather, © 2015

See weather overviewHow to use our weather pages